Time,TemperatureF,DewpointF,PressureIn,WindDirection,WindDirectionDegrees,WindSpeedMPH,WindSpeedGustMPH,Humidity,HourlyPrecipIn,Conditions,Clouds,dailyrainin,SoftwareType,DateUTC
2013-07-04 00:03:00,66.9,56.4,29.94,South,184,2.0,4.0,69,0.00,,CLR,0.00,VWS V14.01,2013-07-04 05:03:00,
2013-07-04 00:08:00,66.7,56.2,29.94,South,184,2.0,3.0,69,0.00,,CLR,0.00,VWS V14.01,2013-07-04 05:08:00,
2013-07-04 00:13:00,66.6,56.1,29.94,South,185,3.0,5.0,69,0.00,,CLR,0.00,VWS V14.01,2013-07-04 05:13:00,
2013-07-04 00:18:00,66.6,55.7,29.94,SSW,193,2.0,3.0,68,0.00,,CLR,0.00,VWS V14.01,2013-07-04 05:18:00,
2013-07-04 00:23:00,66.5,55.6,29.94,SSW,194,3.0,3.0,68,0.00,,CLR,0.00,VWS V14.01,2013-07-04 05:23:00,
2013-07-04 00:28:00,66.5,55.2,29.94,SSW,200,3.0,5.0,67,0.00,,CLR,0.00,VWS V14.01,2013-07-04 05:28:00,
2013-07-04 00:33:00,66.4,55.1,29.94,SSW,195,2.0,4.0,67,0.00,,CLR,0.00,VWS V14.01,2013-07-04 05:33:00,
2013-07-04 00:38:00,66.3,55.0,29.94,SSW,197,3.0,3.0,67,0.00,,CLR,0.00,VWS V14.01,2013-07-04 05:38:00,
2013-07-04 00:43:00,66.2,54.9,29.94,SSW,193,1.0,3.0,67,0.00,,CLR,0.00,VWS V14.01,2013-07-04 05:43:00,
2013-07-04 00:48:00,66.1,54.8,29.94,SSW,192,2.0,3.0,67,0.00,,CLR,0.00,VWS V14.01,2013-07-04 05:48:00,
2013-07-04 00:53:00,65.9,54.7,29.94,SSW,192,2.0,3.0,67,0.00,,CLR,0.00,VWS V14.01,2013-07-04 05:53:00,
2013-07-04 00:58:00,65.8,54.5,29.94,South,181,1.0,4.0,67,0.00,,CLR,0.00,VWS V14.01,2013-07-04 05:58:00,
2013-07-04 01:03:00,65.6,54.8,29.94,South,181,2.0,4.0,68,0.00,,CLR,0.00,VWS V14.01,2013-07-04 06:03:00,
2013-07-04 01:08:00,65.5,54.7,29.93,South,181,0.0,1.0,68,0.00,,CLR,0.00,VWS V14.01,2013-07-04 06:08:00,
2013-07-04 01:13:00,65.4,54.6,29.94,South,181,1.0,2.0,68,0.00,,CLR,0.00,VWS V14.01,2013-07-04 06:13:00,
2013-07-04 01:18:00,65.3,54.5,29.94,South,181,2.0,2.0,68,0.00,,CLR,0.00,VWS V14.01,2013-07-04 06:18:00,
2013-07-04 01:23:00,65.3,54.5,29.94,South,179,2.0,4.0,68,0.00,,CLR,0.00,VWS V14.01,2013-07-04 06:23:00,
2013-07-04 01:28:00,65.2,54.8,29.94,South,179,0.0,3.0,69,0.00,,CLR,0.00,VWS V14.01,2013-07-04 06:28:00,
2013-07-04 01:33:00,65.0,54.6,29.94,South,184,4.0,4.0,69,0.00,,CLR,0.00,VWS V14.01,2013-07-04 06:33:00,
2013-07-04 01:38:00,64.7,54.7,29.94,South,187,2.0,2.0,70,0.00,,CLR,0.00,VWS V14.01,2013-07-04 06:38:00,
2013-07-04 01:43:00,64.5,54.5,29.94,South,187,0.0,2.0,70,0.00,,CLR,0.00,VWS V14.01,2013-07-04 06:43:00,
2013-07-04 01:48:00,64.3,54.3,29.94,South,187,3.0,4.0,70,0.00,,CLR,0.00,VWS V14.01,2013-07-04 06:48:00,
2013-07-04 01:53:00,64.3,54.7,29.94,South,187,2.0,4.0,71,0.00,,CLR,0.00,VWS V14.01,2013-07-04 06:53:00,
2013-07-04 01:58:00,64.2,54.6,29.94,South,191,2.0,4.0,71,0.00,,CLR,0.00,VWS V14.01,2013-07-04 06:58:00,
2013-07-04 02:03:00,64.1,54.5,29.94,SSW,199,1.0,2.0,71,0.00,,CLR,0.00,VWS V14.01,2013-07-04 07:03:00,
2013-07-04 02:08:00,64.1,54.5,29.94,SW,215,0.0,1.0,71,0.00,,CLR,0.00,VWS V14.01,2013-07-04 07:08:00,
2013-07-04 02:13:00,64.2,54.6,29.94,SW,226,0.0,2.0,71,0.00,,CLR,0.00,VWS V14.01,2013-07-04 07:13:00,
2013-07-04 02:18:00,64.3,54.3,29.94,SW,228,4.0,4.0,70,0.00,,CLR,0.00,VWS V14.01,2013-07-04 07:18:00,
2013-07-04 02:23:00,64.4,54.4,29.94,SW,235,1.0,2.0,70,0.00,,CLR,0.00,VWS V14.01,2013-07-04 07:23:00,
2013-07-04 02:28:00,64.5,54.5,29.94,SW,229,0.0,1.0,70,0.00,,CLR,0.00,VWS V14.01,2013-07-04 07:28:00,
2013-07-04 02:33:00,64.5,54.5,29.94,South,185,4.0,4.0,70,0.00,,CLR,0.00,VWS V14.01,2013-07-04 07:33:00,
2013-07-04 02:39:00,64.5,54.5,29.94,South,184,2.0,4.0,70,0.00,,CLR,0.00,VWS V14.01,2013-07-04 07:39:00,
2013-07-04 02:44:00,64.5,54.5,29.94,SSW,202,3.0,5.0,70,0.00,,CLR,0.00,VWS V14.01,2013-07-04 07:44:00,
2013-07-04 02:49:00,64.5,54.5,29.94,South,188,2.0,3.0,70,0.00,,CLR,0.00,VWS V14.01,2013-07-04 07:49:00,
2013-07-04 02:54:00,64.3,54.3,29.94,SSW,197,3.0,4.0,70,0.00,,CLR,0.00,VWS V14.01,2013-07-04 07:54:00,
2013-07-04 02:59:00,64.2,54.6,29.94,South,179,3.0,4.0,71,0.00,,CLR,0.00,VWS V14.01,2013-07-04 07:59:00,
2013-07-04 03:04:00,64.0,54.4,29.94,South,183,2.0,5.0,71,0.00,,CLR,0.00,VWS V14.01,2013-07-04 08:04:00,
2013-07-04 03:09:00,63.8,54.6,29.94,South,182,3.0,4.0,72,0.00,,CLR,0.00,VWS V14.01,2013-07-04 08:09:00,
2013-07-04 03:14:00,63.5,54.7,29.94,SSW,197,3.0,4.0,73,0.00,,CLR,0.00,VWS V14.01,2013-07-04 08:14:00,
2013-07-04 03:19:00,63.4,54.6,29.94,South,183,4.0,5.0,73,0.00,,CLR,0.00,VWS V14.01,2013-07-04 08:19:00,
2013-07-04 03:24:00,63.4,54.6,29.94,SSW,212,2.0,3.0,73,0.00,,CLR,0.00,VWS V14.01,2013-07-04 08:24:00,
2013-07-04 03:29:00,63.4,55.0,29.94,SSW,202,3.0,3.0,74,0.00,,CLR,0.00,VWS V14.01,2013-07-04 08:29:00,
2013-07-04 03:34:00,63.3,54.9,29.94,SSW,199,0.0,2.0,74,0.00,,CLR,0.00,VWS V14.01,2013-07-04 08:34:00,
2013-07-04 03:39:00,63.2,54.8,29.94,SW,216,2.0,3.0,74,0.00,,CLR,0.00,VWS V14.01,2013-07-04 08:39:00,
2013-07-04 03:44:00,63.2,54.8,29.94,SSW,204,1.0,3.0,74,0.00,,CLR,0.00,VWS V14.01,2013-07-04 08:44:00,
2013-07-04 03:49:00,63.2,54.8,29.94,SSW,193,4.0,4.0,74,0.00,,CLR,0.00,VWS V14.01,2013-07-04 08:49:00,
2013-07-04 03:54:00,63.4,55.0,29.94,SSW,205,1.0,4.0,74,0.00,,CLR,0.00,VWS V14.01,2013-07-04 08:54:00,
2013-07-04 03:59:00,63.4,55.0,29.93,South,189,3.0,4.0,74,0.00,,CLR,0.00,VWS V14.01,2013-07-04 08:59:00,
2013-07-04 04:04:00,63.1,54.7,29.94,South,184,3.0,5.0,74,0.00,,CLR,0.00,VWS V14.01,2013-07-04 09:04:00,
2013-07-04 04:09:00,62.9,54.9,29.94,South,181,4.0,4.0,75,0.00,,CLR,0.00,VWS V14.01,2013-07-04 09:09:00,
2013-07-04 04:14:00,62.8,54.8,29.94,South,179,3.0,4.0,75,0.00,,CLR,0.00,VWS V14.01,2013-07-04 09:14:00,
2013-07-04 04:19:00,62.6,54.9,29.94,South,180,3.0,4.0,76,0.00,,CLR,0.00,VWS V14.01,2013-07-04 09:19:00,
2013-07-04 04:24:00,62.3,55.0,29.94,South,179,3.0,3.0,77,0.00,,CLR,0.00,VWS V14.01,2013-07-04 09:24:00,
2013-07-04 04:29:00,62.0,54.7,29.94,South,179,2.0,3.0,77,0.00,,CLR,0.00,VWS V14.01,2013-07-04 09:29:00,
2013-07-04 04:34:00,61.9,54.6,29.94,South,179,2.0,3.0,77,0.00,,CLR,0.00,VWS V14.01,2013-07-04 09:34:00,
2013-07-04 04:39:00,61.9,55.0,29.94,South,179,2.0,2.0,78,0.00,,CLR,0.00,VWS V14.01,2013-07-04 09:39:00,
2013-07-04 04:44:00,61.9,55.0,29.94,South,179,1.0,1.0,78,0.00,,CLR,0.00,VWS V14.01,2013-07-04 09:44:00,
2013-07-04 04:49:00,62.0,54.7,29.94,South,179,0.0,1.0,77,0.00,,CLR,0.00,VWS V14.01,2013-07-04 09:49:00,
2013-07-04 04:54:00,61.9,54.6,29.94,South,179,0.0,0.0,77,0.00,,CLR,0.00,VWS V14.01,2013-07-04 09:54:00,
2013-07-04 04:59:00,61.8,54.5,29.94,South,179,0.0,1.0,77,0.00,,CLR,0.00,VWS V14.01,2013-07-04 09:59:00,
2013-07-04 05:04:00,61.8,54.5,29.94,South,179,1.0,1.0,77,0.00,,CLR,0.00,VWS V14.01,2013-07-04 10:04:00,
2013-07-04 05:09:00,61.8,54.5,29.94,South,179,0.0,1.0,77,0.00,,CLR,0.00,VWS V14.01,2013-07-04 10:09:00,
2013-07-04 05:14:00,61.8,55.2,29.93,South,179,0.0,0.0,79,0.00,,CLR,0.00,VWS V14.01,2013-07-04 10:14:00,
2013-07-04 05:19:00,61.5,54.9,29.93,South,179,0.0,0.0,79,0.00,,CLR,0.00,VWS V14.01,2013-07-04 10:19:00,
2013-07-04 05:24:00,61.1,54.5,29.93,South,179,0.0,0.0,79,0.00,,CLR,0.00,VWS V14.01,2013-07-04 10:24:00,
2013-07-04 05:29:00,60.9,54.7,29.94,South,179,0.0,0.0,80,0.00,,CLR,0.00,VWS V14.01,2013-07-04 10:29:00,
2013-07-04 05:34:00,60.6,54.4,29.94,South,179,0.0,0.0,80,0.00,,CLR,0.00,VWS V14.01,2013-07-04 10:34:00,
2013-07-04 05:39:00,60.4,54.2,29.94,South,179,0.0,0.0,80,0.00,,CLR,0.00,VWS V14.01,2013-07-04 10:39:00,
2013-07-04 05:44:00,60.4,54.5,29.94,South,179,0.0,0.0,81,0.00,,CLR,0.00,VWS V14.01,2013-07-04 10:44:00,
2013-07-04 05:49:00,60.4,54.5,29.94,South,179,0.0,0.0,81,0.00,,CLR,0.00,VWS V14.01,2013-07-04 10:49:00,
2013-07-04 05:54:00,60.4,54.5,29.94,South,179,0.0,0.0,81,0.00,,CLR,0.00,VWS V14.01,2013-07-04 10:54:00,
2013-07-04 05:59:00,60.5,54.3,29.94,South,179,0.0,1.0,80,0.00,,CLR,0.00,VWS V14.01,2013-07-04 10:59:00,
2013-07-04 06:04:00,60.6,54.4,29.94,South,179,0.0,0.0,80,0.00,,CLR,0.00,VWS V14.01,2013-07-04 11:04:00,
2013-07-04 06:09:00,60.7,54.5,29.94,South,179,1.0,1.0,80,0.00,,CLR,0.00,VWS V14.01,2013-07-04 11:09:00,
2013-07-04 06:14:00,60.9,54.3,29.94,South,179,2.0,3.0,79,0.00,,CLR,0.00,VWS V14.01,2013-07-04 11:14:00,
2013-07-04 06:19:00,61.2,54.6,29.95,South,179,2.0,3.0,79,0.00,,CLR,0.00,VWS V14.01,2013-07-04 11:19:00,
2013-07-04 06:24:00,61.2,54.6,29.95,South,179,2.0,2.0,79,0.00,,CLR,0.00,VWS V14.01,2013-07-04 11:24:00,
2013-07-04 06:29:00,60.9,54.7,29.95,South,179,2.0,3.0,80,0.00,,CLR,0.00,VWS V14.01,2013-07-04 11:29:00,
2013-07-04 06:34:00,60.6,54.8,29.95,South,179,1.0,2.0,81,0.00,,CLR,0.00,VWS V14.01,2013-07-04 11:34:00,
2013-07-04 06:39:00,60.4,55.2,29.95,South,179,1.0,2.0,83,0.00,,CLR,0.00,VWS V14.01,2013-07-04 11:39:00,
2013-07-04 06:44:00,60.3,55.1,29.95,South,179,1.0,2.0,83,0.00,,CLR,0.00,VWS V14.01,2013-07-04 11:44:00,
2013-07-04 06:50:00,60.2,55.7,29.95,South,179,1.0,1.0,85,0.00,,CLR,0.00,VWS V14.01,2013-07-04 11:50:00,
2013-07-04 06:55:00,60.3,55.8,29.95,South,179,2.0,3.0,85,0.00,,CLR,0.00,VWS V14.01,2013-07-04 11:55:00,
2013-07-04 07:00:00,60.5,55.7,29.95,South,179,2.0,2.0,84,0.00,,CLR,0.00,VWS V14.01,2013-07-04 12:00:00,
2013-07-04 07:05:00,60.7,55.8,29.95,South,179,2.0,2.0,84,0.00,,CLR,0.00,VWS V14.01,2013-07-04 12:05:00,
2013-07-04 07:10:00,61.0,55.8,29.95,South,179,1.0,2.0,83,0.00,,CLR,0.00,VWS V14.01,2013-07-04 12:10:00,
2013-07-04 07:15:00,61.4,55.9,29.96,South,179,2.0,3.0,82,0.00,,CLR,0.00,VWS V14.01,2013-07-04 12:15:00,
2013-07-04 07:20:00,61.8,55.9,29.96,South,183,2.0,3.0,81,0.00,,CLR,0.00,VWS V14.01,2013-07-04 12:20:00,
2013-07-04 07:25:00,62.2,56.0,29.96,South,181,4.0,5.0,80,0.00,,CLR,0.00,VWS V14.01,2013-07-04 12:25:00,
2013-07-04 07:30:00,62.6,56.0,29.96,South,180,4.0,4.0,79,0.00,,CLR,0.00,VWS V14.01,2013-07-04 12:30:00,
2013-07-04 07:35:00,62.9,55.9,29.96,South,182,3.0,5.0,78,0.00,,CLR,0.00,VWS V14.01,2013-07-04 12:35:00,
2013-07-04 07:40:00,63.3,56.3,29.96,SSE,162,3.0,5.0,78,0.00,,CLR,0.00,VWS V14.01,2013-07-04 12:40:00,
2013-07-04 07:45:00,63.6,56.6,29.96,South,174,5.0,5.0,78,0.00,,CLR,0.00,VWS V14.01,2013-07-04 12:45:00,
2013-07-04 07:50:00,63.7,56.4,29.96,South,185,3.0,6.0,77,0.00,,CLR,0.00,VWS V14.01,2013-07-04 12:50:00,
2013-07-04 07:55:00,64.0,56.7,29.96,SSW,193,3.0,5.0,77,0.00,,CLR,0.00,VWS V14.01,2013-07-04 12:55:00,
2013-07-04 08:00:00,64.3,57.0,29.96,South,187,5.0,6.0,77,0.00,,CLR,0.00,VWS V14.01,2013-07-04 13:00:00,
2013-07-04 08:05:00,64.7,57.0,29.97,South,174,6.0,7.0,76,0.00,,CLR,0.00,VWS V14.01,2013-07-04 13:05:00,
2013-07-04 08:10:00,65.1,57.4,29.97,SSE,148,4.0,6.0,76,0.00,,CLR,0.00,VWS V14.01,2013-07-04 13:10:00,
2013-07-04 08:15:00,65.6,57.5,29.96,South,169,3.0,5.0,75,0.00,,CLR,0.00,VWS V14.01,2013-07-04 13:15:00,
2013-07-04 08:20:00,66.2,57.7,29.96,South,189,3.0,6.0,74,0.00,,CLR,0.00,VWS V14.01,2013-07-04 13:20:00,
2013-07-04 08:25:00,66.8,58.6,29.96,South,182,4.0,5.0,75,0.00,,CLR,0.00,VWS V14.01,2013-07-04 13:25:00,
2013-07-04 08:30:00,67.4,58.5,29.96,SSE,157,6.0,6.0,73,0.00,,CLR,0.00,VWS V14.01,2013-07-04 13:30:00,
2013-07-04 08:35:00,68.0,59.0,29.96,South,186,5.0,7.0,73,0.00,,CLR,0.00,VWS V14.01,2013-07-04 13:35:00,
2013-07-04 08:40:00,68.2,58.8,29.96,South,185,4.0,4.0,72,0.00,,CLR,0.00,VWS V14.01,2013-07-04 13:40:00,
2013-07-04 08:46:00,68.6,58.4,29.96,South,177,7.0,7.0,70,0.00,,CLR,0.00,VWS V14.01,2013-07-04 13:46:00,
2013-07-04 08:50:00,69.0,59.2,29.96,SSW,202,5.0,5.0,71,0.00,,CLR,0.00,VWS V14.01,2013-07-04 13:50:00,
2013-07-04 08:55:00,69.6,58.6,29.96,SSW,202,3.0,6.0,68,0.00,,CLR,0.00,VWS V14.01,2013-07-04 13:55:00,
2013-07-04 09:00:00,70.1,58.7,29.96,South,186,5.0,10.0,67,0.00,,CLR,0.00,VWS V14.01,2013-07-04 14:00:00,
2013-07-04 09:05:00,70.5,59.0,29.96,South,189,6.0,6.0,67,0.00,,CLR,0.00,VWS V14.01,2013-07-04 14:05:00,
2013-07-04 09:10:00,70.7,58.4,29.96,SSW,193,5.0,5.0,65,0.00,,CLR,0.00,VWS V14.01,2013-07-04 14:10:00,
2013-07-04 09:15:00,71.0,57.8,29.96,SW,230,5.0,9.0,63,0.00,,CLR,0.00,VWS V14.01,2013-07-04 14:15:00,
2013-07-04 09:20:00,71.1,58.8,29.95,SSE,157,5.0,6.0,65,0.00,,CLR,0.00,VWS V14.01,2013-07-04 14:20:00,
2013-07-04 09:25:00,71.1,58.3,29.95,South,174,5.0,8.0,64,0.00,,CLR,0.00,VWS V14.01,2013-07-04 14:25:00,
2013-07-04 09:31:00,71.2,58.4,29.95,South,178,3.0,10.0,64,0.00,,CLR,0.00,VWS V14.01,2013-07-04 14:31:00,
2013-07-04 09:36:00,71.4,58.6,29.95,South,185,10.0,11.0,64,0.00,,CLR,0.00,VWS V14.01,2013-07-04 14:36:00,
2013-07-04 09:41:00,71.6,59.7,29.96,SSW,199,5.0,9.0,66,0.00,,CLR,0.00,VWS V14.01,2013-07-04 14:41:00,
2013-07-04 09:46:00,71.7,58.9,29.95,SSW,192,5.0,13.0,64,0.00,,CLR,0.00,VWS V14.01,2013-07-04 14:46:00,
2013-07-04 09:51:00,71.9,60.4,29.95,SSW,198,3.0,8.0,67,0.00,,CLR,0.00,VWS V14.01,2013-07-04 14:51:00,
2013-07-04 09:56:00,72.3,60.3,29.95,South,174,7.0,7.0,66,0.00,,CLR,0.00,VWS V14.01,2013-07-04 14:56:00,
2013-07-04 10:01:00,72.4,60.4,29.95,WSW,237,6.0,7.0,66,0.00,,CLR,0.00,VWS V14.01,2013-07-04 15:01:00,
2013-07-04 10:06:00,72.4,60.0,29.95,South,179,7.0,9.0,65,0.00,,CLR,0.00,VWS V14.01,2013-07-04 15:06:00,
2013-07-04 10:11:00,72.5,60.9,29.95,South,175,6.0,7.0,67,0.00,,CLR,0.00,VWS V14.01,2013-07-04 15:11:00,
2013-07-04 10:16:00,72.9,60.9,29.95,SSE,164,9.0,11.0,66,0.00,,CLR,0.00,VWS V14.01,2013-07-04 15:16:00,
2013-07-04 10:21:00,73.0,60.1,29.95,SSW,194,7.0,11.0,64,0.00,,CLR,0.00,VWS V14.01,2013-07-04 15:21:00,
2013-07-04 10:26:00,73.3,60.4,29.95,South,174,5.0,8.0,64,0.00,,CLR,0.00,VWS V14.01,2013-07-04 15:26:00,
2013-07-04 10:31:00,74.1,60.7,29.95,SSE,167,9.0,11.0,63,0.00,,CLR,0.00,VWS V14.01,2013-07-04 15:31:00,
2013-07-04 10:36:00,74.4,60.5,29.95,SSW,194,6.0,11.0,62,0.00,,CLR,0.00,VWS V14.01,2013-07-04 15:36:00,
2013-07-04 10:41:00,74.5,60.2,29.95,South,170,7.0,9.0,61,0.00,,CLR,0.00,VWS V14.01,2013-07-04 15:41:00,
2013-07-04 10:46:00,74.6,61.2,29.95,SSW,207,5.0,10.0,63,0.00,,CLR,0.00,VWS V14.01,2013-07-04 15:46:00,
2013-07-04 10:51:00,74.9,60.6,29.95,South,189,6.0,11.0,61,0.00,,CLR,0.00,VWS V14.01,2013-07-04 15:51:00,
2013-07-04 10:56:00,75.1,60.3,29.95,SSE,167,5.0,7.0,60,0.00,,CLR,0.00,VWS V14.01,2013-07-04 15:56:00,
2013-07-04 11:01:00,75.4,61.0,29.95,SSE,156,10.0,10.0,61,0.00,,CLR,0.00,VWS V14.01,2013-07-04 16:01:00,
2013-07-04 11:06:00,75.9,61.0,29.95,SSW,193,7.0,11.0,60,0.00,,CLR,0.00,VWS V14.01,2013-07-04 16:06:00,
2013-07-04 11:11:00,76.2,60.8,29.95,South,173,9.0,11.0,59,0.00,,CLR,0.00,VWS V14.01,2013-07-04 16:11:00,
2013-07-04 11:16:00,76.5,61.6,29.95,South,184,6.0,10.0,60,0.00,,CLR,0.00,VWS V14.01,2013-07-04 16:16:00,
2013-07-04 11:21:00,76.9,60.0,29.95,South,174,6.0,11.0,56,0.00,,CLR,0.00,VWS V14.01,2013-07-04 16:21:00,
2013-07-04 11:26:00,77.1,61.2,29.95,SW,223,3.0,9.0,58,0.00,,CLR,0.00,VWS V14.01,2013-07-04 16:26:00,
2013-07-04 11:31:00,77.3,60.9,29.95,SSW,203,7.0,8.0,57,0.00,,CLR,0.00,VWS V14.01,2013-07-04 16:31:00,
2013-07-04 11:36:00,77.7,62.7,29.95,SW,219,3.0,6.0,60,0.00,,CLR,0.00,VWS V14.01,2013-07-04 16:36:00,
2013-07-04 11:41:00,78.2,61.7,29.94,SSW,207,8.0,10.0,57,0.00,,FEW100,0.00,VWS V14.01,2013-07-04 16:41:00,
2013-07-04 11:47:00,77.8,60.4,29.95,WSW,243,5.0,7.0,55,0.00,,FEW100,0.00,VWS V14.01,2013-07-04 16:47:00,
2013-07-04 11:52:00,77.7,61.8,29.94,South,187,5.0,8.0,58,0.00,,FEW100,0.00,VWS V14.01,2013-07-04 16:52:00,
2013-07-04 11:57:00,78.4,62.9,29.94,SSW,209,6.0,8.0,59,0.00,,FEW100,0.00,VWS V14.01,2013-07-04 16:57:00,
2013-07-04 12:02:00,78.5,61.0,29.94,SW,230,9.0,13.0,55,0.00,,FEW100,0.00,VWS V14.01,2013-07-04 17:02:00,
2013-07-04 12:07:00,78.6,60.6,29.94,South,177,10.0,11.0,54,0.00,,FEW100,0.00,VWS V14.01,2013-07-04 17:07:00,
2013-07-04 12:12:00,78.8,61.8,29.94,SSW,206,7.0,9.0,56,0.00,,FEW100,0.00,VWS V14.01,2013-07-04 17:12:00,
2013-07-04 12:17:00,79.0,61.5,29.94,SSE,158,10.0,14.0,55,0.00,,FEW100,0.00,VWS V14.01,2013-07-04 17:17:00,
2013-07-04 12:22:00,79.2,62.2,29.94,South,191,4.0,9.0,56,0.00,,FEW100,0.00,VWS V14.01,2013-07-04 17:22:00,
2013-07-04 12:27:00,79.3,61.2,29.94,SW,216,6.0,9.0,54,0.00,,FEW100,0.00,VWS V14.01,2013-07-04 17:27:00,
2013-07-04 12:32:00,79.2,62.2,29.94,SW,221,5.0,7.0,56,0.00,,FEW100,0.00,VWS V14.01,2013-07-04 17:32:00,
2013-07-04 12:37:00,79.4,60.8,29.94,SW,214,5.0,8.0,53,0.00,,FEW100,0.00,VWS V14.01,2013-07-04 17:37:00,
2013-07-04 12:42:00,79.8,62.7,29.93,WSW,242,6.0,13.0,56,0.00,,SCT100,0.00,VWS V14.01,2013-07-04 17:42:00,
2013-07-04 12:47:00,80.2,62.1,29.93,SW,222,4.0,9.0,54,0.00,,SCT100,0.00,VWS V14.01,2013-07-04 17:47:00,
2013-07-04 12:52:00,80.4,62.2,29.93,SSE,158,6.0,11.0,54,0.00,,SCT100,0.00,VWS V14.01,2013-07-04 17:52:00,
2013-07-04 12:57:00,80.7,62.5,29.93,South,181,4.0,10.0,54,0.00,,SCT100,0.00,VWS V14.01,2013-07-04 17:57:00,
2013-07-04 13:02:00,81.2,61.4,29.93,SW,221,5.0,9.0,51,0.00,,SCT100,0.00,VWS V14.01,2013-07-04 18:02:00,
2013-07-04 13:07:00,81.5,61.1,29.93,SW,216,5.0,9.0,50,0.00,,SCT100,0.00,VWS V14.01,2013-07-04 18:07:00,
2013-07-04 13:12:00,81.5,62.2,29.93,SW,225,4.0,14.0,52,0.00,,SCT100,0.00,VWS V14.01,2013-07-04 18:12:00,
2013-07-04 13:17:00,81.7,60.7,29.93,South,182,13.0,13.0,49,0.00,,SCT100,0.00,VWS V14.01,2013-07-04 18:17:00,
2013-07-04 13:22:00,81.4,61.5,29.92,South,191,6.0,10.0,51,0.00,,SCT100,0.00,VWS V14.01,2013-07-04 18:22:00,
2013-07-04 13:28:00,81.8,61.9,29.92,South,174,8.0,13.0,51,0.00,,SCT100,0.00,VWS V14.01,2013-07-04 18:28:00,
2013-07-04 13:32:00,82.0,62.1,29.92,SSE,156,9.0,10.0,51,0.00,,SCT100,0.00,VWS V14.01,2013-07-04 18:32:00,
2013-07-04 13:38:00,82.1,61.1,29.92,SW,220,9.0,10.0,49,0.00,,SCT100,0.00,VWS V14.01,2013-07-04 18:38:00,
2013-07-04 13:43:00,82.1,61.1,29.92,South,183,11.0,13.0,49,0.00,,SCT250,0.00,VWS V14.01,2013-07-04 18:43:00,
2013-07-04 13:48:00,82.4,61.9,29.91,SSE,166,12.0,13.0,50,0.00,,SCT250,0.00,VWS V14.01,2013-07-04 18:48:00,
2013-07-04 13:53:00,82.5,61.4,29.91,SSE,160,9.0,16.0,49,0.00,,SCT250,0.00,VWS V14.01,2013-07-04 18:53:00,
2013-07-04 13:58:00,82.5,59.7,29.92,South,189,7.0,11.0,46,0.00,,SCT250,0.00,VWS V14.01,2013-07-04 18:58:00,
2013-07-04 14:03:00,82.6,60.9,29.92,SSE,156,8.0,10.0,48,0.00,,SCT250,0.00,VWS V14.01,2013-07-04 19:03:00,
2013-07-04 14:08:00,83.0,62.5,29.92,South,183,11.0,15.0,50,0.00,,SCT250,0.00,VWS V14.01,2013-07-04 19:08:00,
2013-07-04 14:13:00,83.1,60.2,29.91,SSW,204,6.0,10.0,46,0.00,,SCT250,0.00,VWS V14.01,2013-07-04 19:13:00,
2013-07-04 14:18:00,82.9,60.6,29.91,South,176,7.0,10.0,47,0.00,,SCT250,0.00,VWS V14.01,2013-07-04 19:18:00,
2013-07-04 14:23:00,83.0,60.1,29.91,SSW,196,8.0,16.0,46,0.00,,SCT250,0.00,VWS V14.01,2013-07-04 19:23:00,
2013-07-04 14:28:00,83.3,61.6,29.91,South,179,12.0,15.0,48,0.00,,SCT250,0.00,VWS V14.01,2013-07-04 19:28:00,
2013-07-04 14:33:00,83.4,60.5,29.91,South,185,11.0,11.0,46,0.00,,SCT250,0.00,VWS V14.01,2013-07-04 19:33:00,
2013-07-04 14:38:00,83.4,59.8,29.90,South,183,8.0,14.0,45,0.00,,SCT250,0.00,VWS V14.01,2013-07-04 19:38:00,
2013-07-04 14:43:00,83.6,60.0,29.90,SSE,159,6.0,13.0,45,0.00,,SCT250,0.00,VWS V14.01,2013-07-04 19:43:00,
2013-07-04 14:48:00,83.8,59.6,29.91,SSW,199,6.0,14.0,44,0.00,,SCT250,0.00,VWS V14.01,2013-07-04 19:48:00,
2013-07-04 14:53:00,83.8,60.2,29.90,SSE,162,8.0,13.0,45,0.00,,SCT250,0.00,VWS V14.01,2013-07-04 19:53:00,
2013-07-04 14:58:00,84.1,60.5,29.90,South,177,9.0,12.0,45,0.00,,SCT250,0.00,VWS V14.01,2013-07-04 19:58:00,
2013-07-04 15:03:00,84.3,59.4,29.90,SSW,200,9.0,11.0,43,0.00,,SCT250,0.00,VWS V14.01,2013-07-04 20:03:00,
2013-07-04 15:08:00,84.2,55.9,29.90,South,187,7.0,12.0,38,0.00,,SCT250,0.00,VWS V14.01,2013-07-04 20:08:00,
2013-07-04 15:13:00,84.2,54.4,29.90,South,189,17.0,19.0,36,0.00,,SCT250,0.00,VWS V14.01,2013-07-04 20:13:00,
2013-07-04 15:18:00,83.9,57.0,29.90,SSW,205,6.0,15.0,40,0.00,,SCT250,0.00,VWS V14.01,2013-07-04 20:18:00,
2013-07-04 15:23:00,83.9,57.7,29.90,South,180,6.0,13.0,41,0.00,,SCT250,0.00,VWS V14.01,2013-07-04 20:23:00,
2013-07-04 15:30:00,84.2,57.3,29.90,South,185,7.0,13.0,40,0.00,,SCT250,0.00,VWS V14.01,2013-07-04 20:30:00,
2013-07-04 15:52:00,83.9,57.7,29.90,SSW,204,7.0,12.0,41,0.00,,SCT250,0.00,VWS V14.01,2013-07-04 20:52:00,
2013-07-04 15:57:00,83.8,56.9,29.90,South,189,8.0,11.0,40,0.00,,SCT250,0.00,VWS V14.01,2013-07-04 20:57:00,
2013-07-04 16:02:00,83.9,57.0,29.90,South,179,16.0,16.0,40,0.00,,FEW060,0.00,VWS V14.01,2013-07-04 21:02:00,
2013-07-04 16:07:00,83.9,56.3,29.90,South,190,9.0,14.0,39,0.00,,FEW060,0.00,VWS V14.01,2013-07-04 21:07:00,
2013-07-04 16:12:00,84.1,57.9,29.90,SSW,209,7.0,11.0,41,0.00,,FEW060,0.00,VWS V14.01,2013-07-04 21:12:00,
2013-07-04 16:17:00,84.3,59.4,29.90,SSW,199,10.0,18.0,43,0.00,,FEW060,0.00,VWS V14.01,2013-07-04 21:17:00,
2013-07-04 16:22:00,84.0,57.1,29.90,SSW,192,4.0,9.0,40,0.00,,FEW060,0.00,VWS V14.01,2013-07-04 21:22:00,
2013-07-04 16:27:00,84.3,58.1,29.90,South,189,7.0,11.0,41,0.00,,FEW060,0.00,VWS V14.01,2013-07-04 21:27:00,
2013-07-04 16:32:00,84.3,56.7,29.90,South,179,13.0,13.0,39,0.00,,FEW060,0.00,VWS V14.01,2013-07-04 21:32:00,
2013-07-04 16:37:00,84.4,58.2,29.90,South,183,12.0,12.0,41,0.00,,FEW060,0.00,VWS V14.01,2013-07-04 21:37:00,
2013-07-04 16:42:00,84.4,57.5,29.89,South,177,15.0,16.0,40,0.00,,FEW250,0.00,VWS V14.01,2013-07-04 21:42:00,
2013-07-04 16:47:00,84.2,56.6,29.90,South,185,8.0,12.0,39,0.00,,FEW250,0.00,VWS V14.01,2013-07-04 21:47:00,
2013-07-04 16:52:00,84.1,57.9,29.89,South,174,7.0,7.0,41,0.00,,FEW250,0.00,VWS V14.01,2013-07-04 21:52:00,
2013-07-04 16:57:00,84.3,58.1,29.89,South,178,8.0,12.0,41,0.00,,FEW250,0.00,VWS V14.01,2013-07-04 21:57:00,
2013-07-04 17:02:00,84.1,58.5,29.89,SSW,206,7.0,10.0,42,0.00,,FEW250,0.00,VWS V14.01,2013-07-04 22:02:00,
2013-07-04 17:07:00,84.1,59.2,29.89,SSE,156,7.0,10.0,43,0.00,,FEW250,0.00,VWS V14.01,2013-07-04 22:07:00,
2013-07-04 17:12:00,84.3,57.4,29.89,SSE,157,13.0,13.0,40,0.00,,FEW250,0.00,VWS V14.01,2013-07-04 22:12:00,
2013-07-04 17:17:00,84.0,57.8,29.89,South,180,10.0,13.0,41,0.00,,FEW250,0.00,VWS V14.01,2013-07-04 22:17:00,
2013-07-04 17:22:00,83.7,58.2,29.89,SSE,166,9.0,12.0,42,0.00,,FEW250,0.00,VWS V14.01,2013-07-04 22:22:00,
2013-07-04 17:27:00,83.8,58.3,29.88,SSE,163,8.0,11.0,42,0.00,,FEW250,0.00,VWS V14.01,2013-07-04 22:27:00,
2013-07-04 17:32:00,83.9,58.4,29.88,South,170,13.0,13.0,42,0.00,,FEW250,0.00,VWS V14.01,2013-07-04 22:32:00,
2013-07-04 17:37:00,83.7,58.2,29.88,SSE,154,11.0,12.0,42,0.00,,FEW250,0.00,VWS V14.01,2013-07-04 22:37:00,
2013-07-04 17:42:00,83.5,57.3,29.88,SSE,166,9.0,14.0,41,0.00,,FEW250,0.00,VWS V14.01,2013-07-04 22:42:00,
2013-07-04 17:47:00,83.2,57.8,29.88,South,174,11.0,12.0,42,0.00,,FEW250,0.00,VWS V14.01,2013-07-04 22:47:00,
2013-07-04 17:52:00,83.2,59.7,29.88,South,176,8.0,13.0,45,0.00,,FEW250,0.00,VWS V14.01,2013-07-04 22:52:00,
2013-07-04 17:57:00,83.2,58.4,29.87,SE,145,9.0,12.0,43,0.00,,FEW250,0.00,VWS V14.01,2013-07-04 22:57:00,
2013-07-04 18:02:00,83.0,58.9,29.87,SSE,159,7.0,9.0,44,0.00,,FEW250,0.00,VWS V14.01,2013-07-04 23:02:00,
2013-07-04 18:07:00,82.9,58.8,29.87,South,184,9.0,11.0,44,0.00,,FEW250,0.00,VWS V14.01,2013-07-04 23:07:00,
2013-07-04 18:12:00,82.9,58.1,29.87,South,177,7.0,13.0,43,0.00,,FEW250,0.00,VWS V14.01,2013-07-04 23:12:00,
2013-07-04 18:17:00,82.9,58.1,29.87,SSE,164,8.0,14.0,43,0.00,,FEW250,0.00,VWS V14.01,2013-07-04 23:17:00,
2013-07-04 18:22:00,82.8,58.7,29.87,South,183,12.0,14.0,44,0.00,,FEW250,0.00,VWS V14.01,2013-07-04 23:22:00,
2013-07-04 18:27:00,82.7,59.2,29.87,South,179,10.0,12.0,45,0.00,,FEW250,0.00,VWS V14.01,2013-07-04 23:27:00,
2013-07-04 18:32:00,82.6,59.1,29.87,SSE,164,5.0,8.0,45,0.00,,FEW250,0.00,VWS V14.01,2013-07-04 23:32:00,
2013-07-04 18:37:00,82.6,58.5,29.87,SSE,165,8.0,12.0,44,0.00,,FEW250,0.00,VWS V14.01,2013-07-04 23:37:00,
2013-07-04 18:43:00,82.3,58.9,29.86,SSE,166,10.0,12.0,45,0.00,,FEW250,0.00,VWS V14.01,2013-07-04 23:43:00,
2013-07-04 18:48:00,82.3,58.2,29.86,South,174,10.0,11.0,44,0.00,,FEW250,0.00,VWS V14.01,2013-07-04 23:48:00,
2013-07-04 18:53:00,82.1,58.7,29.86,South,183,6.0,13.0,45,0.00,,FEW250,0.00,VWS V14.01,2013-07-04 23:53:00,
2013-07-04 18:58:00,82.1,58.7,29.86,SSE,160,8.0,13.0,45,0.00,,FEW250,0.00,VWS V14.01,2013-07-04 23:58:00,
2013-07-04 19:03:00,81.8,58.4,29.86,South,169,9.0,11.0,45,0.00,,FEW250,0.00,VWS V14.01,2013-07-05 00:03:00,
2013-07-04 19:08:00,81.6,58.8,29.86,SSE,156,7.0,10.0,46,0.00,,FEW250,0.00,VWS V14.01,2013-07-05 00:08:00,
2013-07-04 19:13:00,81.4,59.3,29.86,South,175,5.0,9.0,47,0.00,,FEW250,0.00,VWS V14.01,2013-07-05 00:13:00,
2013-07-04 19:18:00,81.3,59.2,29.86,SSE,167,6.0,11.0,47,0.00,,FEW250,0.00,VWS V14.01,2013-07-05 00:18:00,
2013-07-04 19:23:00,81.1,59.6,29.86,South,185,5.0,8.0,48,0.00,,FEW250,0.00,VWS V14.01,2013-07-05 00:23:00,
2013-07-04 19:28:00,80.8,58.7,29.86,SSE,154,8.0,10.0,47,0.00,,FEW250,0.00,VWS V14.01,2013-07-05 00:28:00,
2013-07-04 19:33:00,80.6,59.1,29.86,South,191,6.0,10.0,48,0.00,,FEW250,0.00,VWS V14.01,2013-07-05 00:33:00,
2013-07-04 19:38:00,80.3,58.8,29.86,South,170,8.0,9.0,48,0.00,,FEW250,0.00,VWS V14.01,2013-07-05 00:38:00,
2013-07-04 19:43:00,80.1,58.7,29.86,SSE,168,5.0,7.0,48,0.00,,FEW250,0.00,VWS V14.01,2013-07-05 00:43:00,
2013-07-04 19:48:00,79.8,59.0,29.86,South,187,7.0,7.0,49,0.00,,FEW250,0.00,VWS V14.01,2013-07-05 00:48:00,
2013-07-04 19:53:00,79.6,59.3,29.86,SSE,155,6.0,7.0,50,0.00,,FEW250,0.00,VWS V14.01,2013-07-05 00:53:00,
2013-07-04 19:58:00,79.4,59.2,29.86,South,177,6.0,7.0,50,0.00,,FEW250,0.00,VWS V14.01,2013-07-05 00:58:00,
2013-07-04 20:03:00,79.1,60.0,29.86,South,172,2.0,5.0,52,0.00,,FEW250,0.00,VWS V14.01,2013-07-05 01:03:00,
2013-07-04 20:08:00,78.7,59.1,29.86,SSE,149,2.0,7.0,51,0.00,,FEW250,0.00,VWS V14.01,2013-07-05 01:08:00,
2013-07-04 20:13:00,78.5,59.4,29.86,SSE,162,7.0,8.0,52,0.00,,FEW250,0.00,VWS V14.01,2013-07-05 01:13:00,
2013-07-04 20:18:00,78.3,59.2,29.86,South,179,6.0,6.0,52,0.00,,FEW250,0.00,VWS V14.01,2013-07-05 01:18:00,
2013-07-04 20:23:00,77.9,59.4,29.86,South,183,4.0,4.0,53,0.00,,FEW250,0.00,VWS V14.01,2013-07-05 01:23:00,
2013-07-04 20:28:00,77.5,59.0,29.85,South,185,5.0,5.0,53,0.00,,FEW250,0.00,VWS V14.01,2013-07-05 01:28:00,
2013-07-04 20:29:00,77.5,59.0,29.86,South,181,4.0,5.0,53,0.00,,FEW250,0.00,VWS V14.01,2013-07-05 01:29:00,
2013-07-04 20:34:00,77.1,59.2,29.86,South,173,3.0,4.0,54,0.00,,FEW250,0.00,VWS V14.01,2013-07-05 01:34:00,
2013-07-04 20:39:00,76.7,59.3,29.86,South,175,4.0,6.0,55,0.00,,FEW250,0.00,VWS V14.01,2013-07-05 01:39:00,
2013-07-04 20:44:00,76.4,59.1,29.85,South,172,2.0,4.0,55,0.00,,SCT250,0.00,VWS V14.01,2013-07-05 01:44:00,
2013-07-04 20:49:00,75.9,59.1,29.85,South,175,4.0,4.0,56,0.00,,SCT250,0.00,VWS V14.01,2013-07-05 01:49:00,
2013-07-04 20:54:00,75.6,58.8,29.85,South,173,4.0,5.0,56,0.00,,SCT250,0.00,VWS V14.01,2013-07-05 01:54:00,
2013-07-04 20:59:00,75.4,59.1,29.85,South,181,3.0,5.0,57,0.00,,SCT250,0.00,VWS V14.01,2013-07-05 01:59:00,
2013-07-04 21:04:00,75.2,58.9,29.86,South,183,3.0,6.0,57,0.00,,SCT250,0.00,VWS V14.01,2013-07-05 02:04:00,
2013-07-04 21:09:00,74.9,58.7,29.86,South,175,4.0,5.0,57,0.00,,SCT250,0.00,VWS V14.01,2013-07-05 02:09:00,
2013-07-04 21:14:00,74.7,59.0,29.86,SSE,168,3.0,4.0,58,0.00,,SCT250,0.00,VWS V14.01,2013-07-05 02:14:00,
2013-07-04 21:19:00,74.4,58.7,29.86,South,178,3.0,5.0,58,0.00,,SCT250,0.00,VWS V14.01,2013-07-05 02:19:00,
2013-07-04 21:24:00,74.3,58.6,29.86,South,174,3.0,4.0,58,0.00,,SCT250,0.00,VWS V14.01,2013-07-05 02:24:00,
2013-07-04 21:29:00,74.1,58.4,29.86,South,174,4.0,5.0,58,0.00,,SCT250,0.00,VWS V14.01,2013-07-05 02:29:00,
2013-07-04 21:34:00,73.8,58.6,29.86,SSE,167,2.0,3.0,59,0.00,,SCT250,0.00,VWS V14.01,2013-07-05 02:34:00,
2013-07-04 21:39:00,73.5,58.8,29.86,SSE,167,3.0,3.0,60,0.00,,SCT250,0.00,VWS V14.01,2013-07-05 02:39:00,
2013-07-04 21:44:00,73.3,58.1,29.86,SSE,167,3.0,3.0,59,0.00,,SCT250,0.00,VWS V14.01,2013-07-05 02:44:00,
2013-07-04 21:49:00,73.1,58.4,29.86,SSE,167,3.0,4.0,60,0.00,,SCT250,0.00,VWS V14.01,2013-07-05 02:49:00,
2013-07-04 21:54:00,72.9,58.7,29.86,SSE,166,2.0,3.0,61,0.00,,SCT250,0.00,VWS V14.01,2013-07-05 02:54:00,
2013-07-04 21:59:00,72.7,58.9,29.86,South,178,1.0,3.0,62,0.00,,SCT250,0.00,VWS V14.01,2013-07-05 02:59:00,
2013-07-04 22:04:00,72.5,58.8,29.86,SSE,154,3.0,5.0,62,0.00,,SCT250,0.00,VWS V14.01,2013-07-05 03:04:00,
2013-07-04 22:09:00,72.4,58.7,29.87,South,175,4.0,4.0,62,0.00,,SCT250,0.00,VWS V14.01,2013-07-05 03:09:00,
2013-07-04 22:14:00,72.2,58.5,29.87,South,180,4.0,6.0,62,0.00,,SCT250,0.00,VWS V14.01,2013-07-05 03:14:00,
2013-07-04 22:19:00,72.1,58.8,29.87,South,185,5.0,5.0,63,0.00,,SCT250,0.00,VWS V14.01,2013-07-05 03:19:00,
2013-07-04 22:24:00,72.1,58.8,29.87,South,181,3.0,4.0,63,0.00,,SCT250,0.00,VWS V14.01,2013-07-05 03:24:00,
2013-07-04 22:29:00,72.0,58.7,29.87,SSW,194,4.0,5.0,63,0.00,,SCT250,0.00,VWS V14.01,2013-07-05 03:29:00,
2013-07-04 22:34:00,72.1,58.4,29.88,South,179,4.0,5.0,62,0.00,,SCT250,0.00,VWS V14.01,2013-07-05 03:34:00,
2013-07-04 22:39:00,72.3,58.1,29.87,South,185,3.0,6.0,61,0.00,,SCT250,0.00,VWS V14.01,2013-07-05 03:39:00,
2013-07-04 22:44:00,72.4,58.2,29.88,South,179,3.0,6.0,61,0.00,,SCT250,0.00,VWS V14.01,2013-07-05 03:44:00,
2013-07-04 22:49:00,72.4,58.2,29.87,South,179,7.0,7.0,61,0.00,,SCT250,0.00,VWS V14.01,2013-07-05 03:49:00,
2013-07-04 22:54:00,72.3,58.1,29.88,South,171,5.0,5.0,61,0.00,,SCT250,0.00,VWS V14.01,2013-07-05 03:54:00,
2013-07-04 22:59:00,72.2,58.0,29.87,South,174,6.0,7.0,61,0.00,,SCT250,0.00,VWS V14.01,2013-07-05 03:59:00,
2013-07-04 23:01:00,72.2,58.0,29.87,South,181,6.0,8.0,61,0.00,,SCT250,0.00,VWS V14.01,2013-07-05 04:01:00,
2013-07-04 23:06:00,72.0,58.3,29.87,South,182,4.0,6.0,62,0.00,,SCT250,0.00,VWS V14.01,2013-07-05 04:06:00,
2013-07-04 23:11:00,72.1,58.4,29.87,SSE,167,5.0,8.0,62,0.00,,SCT250,0.00,VWS V14.01,2013-07-05 04:11:00,
2013-07-04 23:16:00,72.1,58.4,29.87,South,178,5.0,7.0,62,0.00,,SCT250,0.00,VWS V14.01,2013-07-05 04:16:00,
2013-07-04 23:21:00,72.0,58.3,29.88,South,177,4.0,9.0,62,0.00,,SCT250,0.00,VWS V14.01,2013-07-05 04:21:00,
2013-07-04 23:26:00,72.3,58.6,29.88,South,182,8.0,8.0,62,0.00,,SCT250,0.00,VWS V14.01,2013-07-05 04:26:00,
2013-07-04 23:31:00,72.2,58.0,29.88,South,177,7.0,9.0,61,0.00,,SCT250,0.00,VWS V14.01,2013-07-05 04:31:00,
2013-07-04 23:36:00,72.3,58.1,29.88,South,171,7.0,10.0,61,0.00,,SCT250,0.00,VWS V14.01,2013-07-05 04:36:00,
2013-07-04 23:41:00,72.4,58.2,29.87,South,187,7.0,10.0,61,0.00,,FEW250,0.00,VWS V14.01,2013-07-05 04:41:00,
2013-07-04 23:46:00,72.5,58.3,29.88,South,169,6.0,10.0,61,0.00,,FEW250,0.00,VWS V14.01,2013-07-05 04:46:00,
2013-07-04 23:51:00,72.4,58.2,29.87,South,173,11.0,11.0,61,0.00,,FEW250,0.00,VWS V14.01,2013-07-05 04:51:00,
2013-07-04 23:56:00,72.4,58.2,29.88,SSE,160,8.0,10.0,61,0.00,,FEW250,0.00,VWS V14.01,2013-07-05 04:56:00,